N5DUP Weather Reports


Display with metric or nautical units.
time (UTC)temp
F
wind
direction
speed
MPH
gust
MPH
rain 1hr
in
rain 24hr
in
rain mn
in
humidity
%
barometer
mb
20260506090343 51 53 4.0 6.0 0.00 0.00 0.00 80 1010.5
20260506084816 52 46 4.0 6.0 0.00 0.00 0.00 79 1010.5
20260506083327 52 53 6.0 11.0 0.00 0.00 0.00 79 1010.3
20260506081822 52 45 4.0 7.0 0.00 0.00 0.00 78 1010.3
20260506080338 53 59 4.0 9.0 0.00 0.00 0.00 78 1010.4
20260506073317 53 59 6.0 10.0 0.00 0.00 0.00 77 1010.5
20260506071830 54 58 5.0 9.0 0.00 0.00 0.00 76 1010.3
20260506070327 54 41 4.0 10.0 0.00 0.00 0.00 75 1010.3
20260506061826 56 61 6.0 11.0 0.00 0.00 0.00 71 1010.1
20260506060319 57 42 5.0 10.0 0.00 0.00 0.00 71 1010.0
20260506050340 60 63 4.0 9.0 0.00 0.00 0.00 65 1009.1
20260506044820 61 82 6.0 11.0 0.00 0.00 0.00 63 1008.8
20260506043330 62 59 5.0 10.0 0.00 0.00 0.00 62 1008.9
20260506041822 63 56 5.0 9.0 0.00 0.00 0.00 60 1009.0
20260506040330 64 69 8.0 13.0 0.00 0.00 0.00 57 1008.8
20260506034824 66 84 4.0 9.0 0.00 0.00 0.00 56 1008.7
20260506033332 67 67 5.0 8.0 0.00 0.00 0.00 56 1008.7
20260506031827 67 69 2.0 4.0 0.00 0.00 0.00 57 1008.5
20260506030320 68 65 2.0 8.0 0.00 0.00 0.00 56 1008.3
20260506024814 69 71 3.0 6.0 0.00 0.00 0.00 54 1008.1
20260506023326 70 84 3.0 5.0 0.00 0.00 0.00 54 1007.9
20260506021841 71 89 2.0 6.0 0.00 0.00 0.00 53 1007.6
20260506020325 72 80 3.0 7.0 0.00 0.00 0.00 51 1007.2
20260506014819 73 98 2.0 6.0 0.00 0.00 0.00 50 1007.1
20260506013331 74 80 4.0 9.0 0.00 0.00 0.00 48 1006.7
20260506011841 75 83 5.0 9.0 0.00 0.00 0.00 47 1006.6
20260506010333 76 92 4.0 9.0 0.00 0.00 0.00 46 1006.1
20260506004822 78 72 4.0 9.0 0.00 0.00 0.00 45 1006.0
20260506003316 79 52 6.0 10.0 0.00 0.00 0.00 39 1005.7
20260506001827 80 53 2.0 9.0 0.00 0.00 0.00 37 1005.5
20260506000337 81 65 5.0 7.0 0.00 0.00 0.00 32 1005.0
20260505234827 82 61 1.0 5.0 0.00 0.00 0.00 31 1005.3
20260505233345 83 59 2.0 6.0 0.00 0.00 0.00 31 1004.7
20260505231840 84 36 2.0 6.0 0.00 0.00 0.00 29 1004.7
20260505230332 85 55 5.0 8.0 0.00 0.00 0.00 28 1004.8
20260505224825 86 22 3.0 8.0 0.00 0.00 0.00 27 1004.9
20260505223326 87 32 2.0 5.0 0.00 0.00 0.00 26 1004.6
20260505221818 88 9 4.0 9.0 0.00 0.00 0.00 24 1004.4
20260505220331 90 54 4.0 11.0 0.00 0.00 0.00 23 1003.9
20260505213320 90 229 5.0 11.0 0.00 0.00 0.00 17 1004.0
20260505211833 91 227 5.0 11.0 0.00 0.00 0.00 17 1004.2
20260505210327 91 263 6.0 10.0 0.00 0.00 0.00 17 1004.6
20260505204837 91 229 5.0 10.0 0.00 0.00 0.00 22 1004.6
20260505203329 91 210 3.0 14.0 0.00 0.00 0.00 23 1004.6
20260505201825 91 232 3.0 14.0 0.00 0.00 0.00 19 1004.6
20260505200317 90 239 6.0 8.0 0.00 0.00 0.00 20 1004.9
20260505194829 89 227 5.0 11.0 0.00 0.00 0.00 25 1005.3
20260505193340 89 225 5.0 10.0 0.00 0.00 0.00 26 1005.2
20260505191826 89 207 4.0 8.0 0.00 0.00 0.00 28 1005.3
20260505190316 89 229 6.0 10.0 0.00 0.00 0.00 29 1005.5
20260505184829 88 188 3.0 9.0 0.00 0.00 0.00 33 1005.4
20260505183319 87 194 4.0 9.0 0.00 0.00 0.00 34 1005.8
20260505181832 86 191 3.0 10.0 0.00 0.00 0.00 40 1006.2
20260505180326 84 219 4.0 7.0 0.00 0.00 0.00 41 1006.3
20260505174817 83 217 5.0 8.0 0.00 0.00 0.00 45 1006.4
20260505173329 82 230 5.0 9.0 0.00 0.00 0.00 47 1006.4
20260505171818 81 211 4.0 7.0 0.00 0.00 0.00 49 1006.4
20260505170330 81 218 5.0 10.0 0.00 0.00 0.00 48 1006.5
20260505164843 80 238 5.0 9.0 0.00 0.00 0.00 52 1006.5
20260505163314 79 207 4.0 9.0 0.00 0.00 0.00 54 1006.4
20260505161827 78 226 6.0 11.0 0.00 0.00 0.00 56 1006.6
20260505160318 77 223 5.0 9.0 0.00 0.00 0.00 57 1006.7
20260505153315 76 228 5.0 9.0 0.00 0.00 0.00 62 1006.4
20260505151828 75 231 5.0 9.0 0.00 0.00 0.00 65 1006.2
20260505150340 74 225 5.0 11.0 0.00 0.00 0.00 69 1005.9
20260505140323 71 209 7.0 15.0 0.00 0.00 0.00 73 1005.4
20260505124828 68 217 6.0 11.0 0.00 0.00 0.00 76 1004.9
20260505123322 68 212 6.0 9.0 0.00 0.00 0.00 77 1004.9
20260505121831 67 203 6.0 9.0 0.00 0.00 0.00 77 1004.6
20260505120323 67 213 6.0 12.0 0.00 0.00 0.00 77 1004.5
20260505114855 67 217 7.0 12.0 0.00 0.00 0.00 78 1004.4
20260505113328 66 223 6.0 10.0 0.00 0.00 0.00 78 1004.4
20260505111821 66 209 6.0 8.0 0.00 0.00 0.00 79 1004.4
20260505110315 66 215 6.0 8.0 0.00 0.00 0.00 78 1004.4
20260505101828 67 216 5.0 9.0 0.00 0.00 0.00 76 1004.2
20260505100322 68 215 7.0 10.0 0.00 0.00 0.00 76 1004.2
20260505094852 68 189 6.0 10.0 0.00 0.00 0.00 76 1004.3
20260505093345 68 219 6.0 12.0 0.00 0.00 0.00 75 1004.1
20260505091815 68 217 6.0 9.0 0.00 0.00 0.00 74 1004.1